Weather Roundup
Issued by NWS Chicago, IL

Home | Current Version | Previous Version | Graphics & Text | Print | Product List | Glossary On
Versions: 1 2 3 4 5 6 7 8 9 10 11 12 13 14 15 16 17 18 19 20 21 22 23 24 25 26 27 28 29 30 31 32 33 34 35 36 37 38 39 40 41 42 43 44 45 46 47 48 49 50
000
NZUS59 KLOT 251008
HRRLOT

CHICAGO AREA WEATHER ROUNDUP
NATIONAL WEATHER SERVICE CHICAGO/ROMEOVILLE IL
500 AM CDT SAT APR 25 2015

NOTE: "FAIR" INDICATES FEW OR NO CLOUDS BELOW 12,000 FEET WITH NO
SIGNIFICANT WEATHER AND/OR OBSTRUCTIONS TO VISIBILITY.

* THESE STATIONS ARE NOT UNDER NWS QUALITY CONTROL. THEY ALSO MAY NOT
  REPORT WEATHER SUCH AS PRECIPITATION OR FOG.

ILZ005-006-012>014-019>023-251100-
NORTHEAST ILLINOIS

CITY           SKY/WX    TMP DP  RH WIND       PRES   REMARKS
OHARE          CLOUDY    43  38  82 E13       29.79F
MIDWAY         CLOUDY    46  40  79 E18       29.79F
AURORA         CLOUDY    45  38  76 E14       29.77S
LANSING*       CLOUDY    45  37  73 E10G23    29.79S
JOLIET*        LGT RAIN  46  42  86 E10       29.77R
WAUKEGAN       CLOUDY    39  37  92 NE12      29.83F
DUPAGE AIRPORT CLOUDY    44  38  79 E15       29.77F
WHEELING       CLOUDY    42  37  82 E9G17     29.82F
KANKAKEE*      RAIN      44  42  93 NE16      29.74F
MORRIS*        LGT RAIN  44  41  89 E13G18    29.72F
LEWIS AIRPORT* CLOUDY    43  40  86 E13G18    29.77S
NORTHERLY IS     N/A     43  39  86 E12         N/A
$$

WIZ051-052-058>065-066-070>072-251100-
SOUTHEAST WISCONSIN

CITY           SKY/WX    TMP DP  RH WIND       PRES   REMARKS
MILWAUKEE      CLOUDY    40  35  83 E12       29.87F
KENOSHA*       CLOUDY    41  37  86 E14       29.84F
RACINE*        CLOUDY    40  36  86 E12       29.87F
BURLINGTON     CLOUDY    40  35  84 E12G17    29.83F
WAUKESHA       CLOUDY    36  32  87 NE8       29.87S
WEST BEND      CLOUDY    37  34  87 E6        29.88S
$$

INZ001>003-010>013-019-020-251100-
NORTHWEST INDIANA

CITY           SKY/WX    TMP DP  RH WIND       PRES   REMARKS
GARY*          CLOUDY    46  36  66 E12G23    29.80F
MICHIGAN CITY* NOT AVBL
RENSSELAER*    NOT AVBL
VALPARAISO     CLOUDY    43  38  82 E14       29.80F
$$

LMZ740>746-251100-
SOUTHERN LAKE MICHIGAN

STATION/POSITION TIME  SKY/WX   TEMP WIND        PRES    VSBY
                                AIR  DIR/SP/G
                 (UTC)          (F)  (DEG/KT/KT) (MB)    (MI)
HARRISON CRIB    0900            41   80/ 18/ 21   N/A
BURNHAM HARBOR   1000            43   60/ 12/ 13   N/A
CALUMET HARBOR   0900            44   70/ 10/ 14   N/A
BURNS HARBOR     0900            45   90/ 13/ 17 1010.2F
MICHIGAN CITY    0900            45   70/ 12/ 16   N/A
$$

ABBREVIATIONS USED IN REMARKS
   TC - TEMPERATURE IN CELSIUS
  WCI - WIND CHILL INDEX
   HX - HEAT INDEX
  VSB - VISIBILITY
$$



USA.gov is the U.S. government's official web portal to all federal, state and local government web resources and services.